Flag for India Weather past 2 weeks in Pudukkottai, Tamil Nadu, India

Now
84 °F

Passing clouds.


Feels Like: 87 °F
Forecast: 81 / 100 °F
Wind: 10 mph from West

Location: Tiruchchirapalli

Current Time: Jul 8, 2015 at 1:53:40 AM

Latest Report: Jul 8, 2015 at 1:10 AM


Visibility: 4 mi

Pressure: 29.71 "Hg

Humidity: 58%

Dew point: 68 °F

Location of PudukkottaiLocation

Historic Weather in Pudukkottai — Graph

°F

Pudukkottai temperature yesterday

Maximum temperature yesterday: 100 °F (at 1:40 PM)
Minimum temperature yesterday: 81 °F (at 5:10 AM)
Average temperature yesterday: 90 °F

Past Weeks' High & Low Weather Summary

 TemperatureHumidityPressure
High104 °F (Jul 2, 3:40 PM)84% (Jun 23, 6:40 AM)29.86 "Hg (Jun 23, 6:40 AM)
Low79 °F (Jun 24, 5:40 AM)31% (Jul 1, 2:40 PM)29.62 "Hg (Jul 7, 3:10 PM)
Average90 °F54%29.76 "Hg
* Reported Jun 23 12:40 AM — Jul 8 12:40 AM, Pudukkottai, Weather by CustomWeather, © 2015

Note: Actual official high and low records may vary slightly from our data, if they occured in-between our weather recording intervals... More about our weather records

Advertising

Pudukkottai weather history for previous 24 hours

 ConditionsComfort  
Time TempWeatherWind HumidityBarometerVisibility
12:40 AM
Wed, Jul 8
84 °FPassing clouds.12 mph58%29.71 "Hg4 mi
12:10 AM84 °FPassing clouds.12 mph58%29.71 "Hg4 mi
11:40 PM
Tue, Jul 7
86 °FPassing clouds.12 mph55%29.74 "Hg4 mi
11:10 PM86 °FPassing clouds.12 mph55%29.74 "Hg4 mi
10:40 PM86 °FPassing clouds.12 mph55%29.74 "Hg4 mi
10:10 PM88 °FPassing clouds.12 mph52%29.74 "Hg4 mi
9:40 PM88 °FPassing clouds.9 mph52%29.74 "Hg4 mi
8:40 PM90 °FPassing clouds.12 mph49%29.71 "Hg4 mi
8:10 PM90 °FPassing clouds.15 mph46%29.71 "Hg4 mi
7:40 PM90 °FPassing clouds.16 mph46%29.68 "Hg4 mi
7:10 PM91 °FScattered clouds.15 mph44%29.68 "Hg4 mi
6:40 PM91 °FScattered clouds.9 mph41%29.65 "Hg4 mi
6:10 PM93 °FScattered clouds.9 mph44%29.65 "Hg5 mi
5:10 PM99 °FPassing clouds.8 mph37%29.62 "HgN/A
4:40 PM100 °FPassing clouds.8 mph35%29.62 "HgN/A
4:10 PM100 °FPassing clouds.12 mph33%29.62 "HgN/A
3:40 PM100 °FPassing clouds.14 mph33%29.62 "HgN/A
3:10 PM100 °FPassing clouds.12 mph35%29.62 "HgN/A
2:40 PM100 °FPassing clouds.13 mph35%29.65 "HgN/A
2:10 PM100 °FPassing clouds.14 mph33%29.65 "HgN/A
1:40 PM100 °FPassing clouds.12 mph33%29.65 "HgN/A
1:10 PM99 °FPassing clouds.9 mph35%29.68 "HgN/A
12:40 PM97 °FPassing clouds.12 mph34%29.68 "HgN/A
12:10 PM95 °FPassing clouds.16 mph39%29.71 "Hg5 mi
11:40 AM95 °FPassing clouds.16 mph39%29.71 "Hg5 mi
11:10 AM93 °FPassing clouds.16 mph44%29.71 "Hg4 mi
10:40 AM91 °FPassing clouds.16 mph46%29.74 "Hg4 mi
9:40 AM88 °FPassing clouds.28 mph52%29.74 "Hg4 mi
9:10 AM88 °FPassing clouds.18 mph52%29.74 "Hg4 mi
8:40 AM86 °FHaze.15 mph55%29.74 "Hg3 mi
8:10 AM84 °FHaze.17 mph58%29.74 "Hg3 mi
7:40 AM84 °FHaze.20 mph58%29.74 "Hg3 mi
7:10 AM82 °FHaze.18 mph62%29.74 "Hg3 mi
6:40 AM82 °FHaze.16 mph66%29.74 "Hg3 mi
6:10 AM82 °FHaze.17 mph62%29.74 "Hg3 mi
5:10 AM81 °FPassing clouds.10 mph70%29.71 "Hg4 mi
4:40 AM82 °FPassing clouds.15 mph62%29.71 "Hg4 mi
4:10 AM82 °FHaze.12 mph62%29.71 "Hg4 mi
3:40 AM82 °FPassing clouds.9 mph62%29.71 "Hg4 mi
3:10 AM82 °FPassing clouds.12 mph58%29.71 "Hg4 mi
2:40 AM82 °FPassing clouds.12 mph58%29.71 "Hg4 mi
1:40 AM84 °FPassing clouds.10 mph55%29.71 "Hg4 mi
Weather by CustomWeather, © 2015

See weather overviewHow to use our weather pages